Weather Roundup
Issued by NWS Springfield, MO

Home | Current Version | Previous Version | Text Only | Print | Product List | Glossary On
Versions: 1 2 3 4 5 6 7 8 9 10 11 12 13 14 15 16 17 18 19 20 21 22 23 24 25 26 27 28 29 30 31 32 33 34 35 36 37 38 39 40 41 42 43 44 45 46 47 48 49 50
000
NZUS99 KSGF 031359
HRRSGF

HOURLY WEATHER
NATIONAL WEATHER SERVICE SPRINGFIELD MO
800 AM CST TUE MAR 03 2015

......SGF CWA......

CITY           SKY/WX    TMP DP  RH WIND       PRES   REMARKS
SPRINGFIELD    FOG       38  37  97 S16       29.84F VSB 1/2 WCI  29
JOPLIN         CLOUDY    41  40  96 SW18G26   29.86S
WEST PLAINS    FOG       34  33  96 S8        29.94S VSB<1/4 WCI  27
ROLLA          FOG       37  36  96 S17G28    29.80F VSB 1   WCI  27
OSAGE BEACH    CLOUDY    37  34  87 S9        29.80F WCI  31
BRANSON        FOG       36  32  87 CALM      29.93S VSB 1/4

......SURROUNDING SGF CWA......

CITY           SKY/WX    TMP DP  RH WIND       PRES   REMARKS
CHANUTE        CLOUDY    39  38  96 S21G31    29.78F FOG     WCI  29
PARSONS        CLOUDY    40  39  97 S16G24    29.84F FOG     WCI  31
COFFEYVILLE    CLOUDY    39  39 100 S18       29.85F FOG     WCI  30
EMPORIA        CLOUDY    39  37  92 SW25G32   29.71F WCI  28
ROGERS AR      LGT RAIN  43  43 100 S15       29.92F FOG
SILOAM SPRINGS CLOUDY    39  36  87 S12G17    29.95F VSB 3/4 WCI  32
HARRISON AR    CLOUDY    45  45 100 SE3       29.92R
NEAR YELLVILLE CLOUDY    39  36  87 CALM      29.95R

......KANSAS AND MISSOURI......

CITY           SKY/WX    TMP DP  RH WIND       PRES   REMARKS
KANSAS CTY INT DRIZZLE   38  37  97 SW17      29.70S WCI  28
DOWNTOWN KC    CLOUDY    41  38  89 SW16G30   29.71F
COLUMBIA       CLOUDY    36  34  92 S15       29.76F WCI  27
SEDALIA        CLOUDY    40  36  86 SW20G35   29.76F FOG     WCI  30
ST JOSEPH      CLOUDY    37  36  96 SW13      29.70S FOG     WCI  29
ST LOUIS       DRIZZLE   36  30  80 SE12      29.84F WCI  27
SPIRIT OF STL  CLOUDY    36  33  89 S10G17    29.81F WCI  28
KIRKSVILLE     FOG       32  32 100 S10       29.72F VSB 1   WCI  24
WICHITA        CLOUDY    37  34  89 S17       29.75S WCI  27
TOPEKA         CLOUDY    42  37  82 SW12G21   29.69F
OLATHE         CLOUDY    38  38 100 SW18G28   29.71F FOG     WCI  28

......TENNESSEE......

CITY           SKY/WX    TMP DP  RH WIND       PRES   REMARKS
MEMPHIS        DRZL/FOG  49  47  93 S8        30.07S VSB 1/2
NASHVILLE      CLOUDY    49  45  86 SE6       30.11F

......ARKANSAS.......

CITY           SKY/WX    TMP DP  RH WIND       PRES   REMARKS
FAYETTEVILLE   FOG       43  43 100 SW10      29.95R VSB 1
FT SMITH       FOG       36  35  96 NE7       30.01R VSB 3/4 WCI  30
LITTLE ROCK    FOG       37  34  89 SW7       30.08R VSB 1/4 WCI  32

......OKLAHOMA.......

CITY           SKY/WX    TMP DP  RH WIND       PRES   REMARKS
TULSA          CLOUDY    42  40  92 S12       29.91R
PONCA CITY     CLOUDY    42  38  85 S16G25    29.84F
MCALESTER      CLOUDY    40  39  97 S8G18     29.99S FOG     WCI  34
OKLAHOMA CITY  CLOUDY    41  37  86 S13       29.91R

......IOWA............

CITY           SKY/WX    TMP DP  RH WIND       PRES   REMARKS
DES MOINES     FRZ DRZL  32  30  92 S9        29.67S VSB 1   WCI  24
QUAD CITIES    FOG       29  26  89 S13       29.74F VSB 1   WCI  19

......ILLINOIS........

CITY           SKY/WX    TMP DP  RH WIND       PRES   REMARKS
QUINCY         CLOUDY    31  28  89 S13       29.76F FOG     WCI  21
CHICAGO        FRZ RAIN  28  25  88 S14       29.83F FOG     WCI  17




USA.gov is the U.S. government's official web portal to all federal, state and local government web resources and services.